DM1RG-6 Weather Reports


time (UTC)temp
C
wind
direction
speed
KPH
gust
KPH
rain 1hr
cm
rain 24hr
cm
rain mn
cm
humidity
%
barometer
mb
20260505064203 13 102 4.8 6.4 0.00 0.00 0.00 92 1009.0
20260505063603 13 85 4.8 9.7 0.00 0.00 0.00 92 1008.9
20260505063003 13 83 6.4 9.7 0.00 0.00 0.00 92 1009.0
20260505062403 13 81 4.8 6.4 0.00 0.00 0.00 91 1009.0
20260505061804 13 88 4.8 6.4 0.00 0.00 0.00 91 1009.0
20260505061203 13 100 4.8 6.4 0.00 0.00 0.00 90 1009.0
20260505060603 13 72 3.2 6.4 0.00 0.00 0.00 90 1009.1
20260505060004 13 30 3.2 6.4 0.00 0.00 0.00 90 1009.1
20260505055404 13 43 3.2 6.4 0.00 0.00 0.00 90 1009.2
20260505054803 13 45 3.2 6.4 0.00 0.00 0.00 89 1009.1
20260505054203 13 48 3.2 6.4 0.00 0.00 0.00 89 1009.3
20260505053603 13 62 4.8 6.4 0.00 0.00 0.00 89 1009.2
20260505053003 13 47 3.2 6.4 0.00 0.00 0.00 88 1009.2
20260505052403 13 22 0.0 6.4 0.00 0.00 0.00 88 1009.2
20260505051803 13 0 0.0 0.0 0.00 0.00 0.00 88 1009.2
20260505051203 13 0 0.0 0.0 0.00 0.00 0.00 88 1009.2
20260505050603 13 8 0.0 3.2 0.00 0.00 0.00 88 1009.2
20260505041203 13 40 4.8 6.4 0.00 0.00 0.00 87 1009.2
20260505040603 13 44 3.2 6.4 0.00 0.00 0.00 86 1009.0
20260505040004 13 53 0.0 6.4 0.00 0.00 0.00 86 1009.0
20260505035403 13 0 0.0 0.0 0.00 0.00 0.00 86 1009.1
20260505034803 13 35 1.6 3.2 0.00 0.00 0.00 86 1009.2
20260505034203 13 37 3.2 3.2 0.00 0.00 0.00 86 1009.2
20260505033603 13 45 3.2 3.2 0.00 0.00 0.00 86 1009.1
20260505033004 13 39 4.8 6.4 0.00 0.00 0.00 86 1009.3
20260505032403 13 36 4.8 6.4 0.00 0.00 0.00 85 1009.1
20260505031803 13 26 3.2 6.4 0.00 0.00 0.00 85 1009.3
20260505031203 14 10 1.6 3.2 0.00 0.00 0.00 85 1009.5
20260505030603 14 326 1.6 3.2 0.00 0.00 0.00 85 1009.3
20260505030003 14 315 0.0 3.2 0.00 0.00 0.00 85 1009.3
20260505025403 14 0 0.0 0.0 0.00 0.00 0.00 85 1009.6
20260505024803 14 10 1.6 3.2 0.00 0.00 0.00 85 1009.6
20260505024203 14 13 1.6 3.2 0.00 0.00 0.00 85 1009.3
20260505023603 14 26 1.6 6.4 0.00 0.00 0.00 85 1009.7
20260505023004 14 35 3.2 6.4 0.00 0.00 0.00 85 1009.5
20260505022403 14 13 3.2 6.4 0.00 0.00 0.00 85 1009.6
20260505021804 14 340 1.6 6.4 0.00 0.00 0.00 84 1009.9
20260505021203 14 2 1.6 3.2 0.00 0.00 0.00 84 1009.7
20260505020603 14 350 3.2 6.4 0.00 0.00 0.00 84 1009.8
20260505020004 14 360 3.2 6.4 0.00 0.00 0.00 84 1009.8
20260505015404 14 19 3.2 3.2 0.00 0.00 0.00 85 1009.9
20260505014804 14 16 1.6 3.2 0.00 0.00 0.00 85 1009.8
20260505014203 14 318 0.0 3.2 0.00 0.00 0.00 84 1009.9
20260505013603 14 311 1.6 3.2 0.00 0.00 0.00 84 1010.0
20260505013003 14 319 3.2 6.4 0.00 0.00 0.00 84 1009.8
20260505012403 14 318 4.8 9.7 0.00 0.00 0.00 84 1009.8
20260505011804 14 304 3.2 9.7 0.00 0.00 0.00 84 1010.3
20260505011204 14 278 4.8 6.4 0.00 0.00 0.00 85 1010.2
20260505010603 14 267 6.4 6.4 0.00 0.00 0.00 85 1010.4
20260505010004 14 248 3.2 6.4 0.00 0.00 0.00 85 1010.0
20260505005403 13 0 0.0 0.0 0.00 0.00 0.00 88 1010.0
20260505004803 13 0 0.0 0.0 0.00 0.00 0.00 88 1009.9
20260505004203 13 0 0.0 0.0 0.00 0.00 0.00 88 1009.9
20260505003603 13 0 0.0 0.0 0.00 0.00 0.00 88 1009.9
20260505003004 13 0 0.0 0.0 0.00 0.00 0.00 88 1010.2
20260505002403 13 0 0.0 0.0 0.00 0.00 0.00 89 1009.9
20260505001803 13 0 0.0 0.0 0.00 0.00 0.00 89 1010.1
20260505001204 13 0 0.0 0.0 0.00 0.00 0.00 89 1010.1
20260505000603 13 0 0.0 0.0 0.00 0.00 0.00 90 1010.1
20260505000003 13 0 0.0 0.0 0.00 0.00 0.00 90 1010.6
20260504235403 13 0 0.0 0.0 0.00 0.00 0.00 89 1010.7
20260504234803 13 0 0.0 0.0 0.00 0.00 0.00 89 1010.4
20260504234203 13 0 0.0 0.0 0.00 0.00 0.00 89 1010.5
20260504233603 13 0 0.0 0.0 0.00 0.00 0.00 89 1010.5
20260504233003 13 0 0.0 0.0 0.00 0.00 0.00 89 1010.5
20260504232403 13 0 0.0 0.0 0.00 0.00 0.00 89 1010.6
20260504231803 13 0 0.0 0.0 0.00 0.00 0.00 89 1010.7
20260504231203 13 0 0.0 0.0 0.00 0.00 0.00 89 1010.7
20260504230603 13 0 0.0 0.0 0.00 0.00 0.00 88 1011.0
20260504230003 13 0 0.0 0.0 0.00 0.00 0.00 88 1011.0
20260504225403 13 0 0.0 0.0 0.00 0.00 0.00 88 1010.8
20260504224803 13 0 0.0 0.0 0.00 0.00 0.00 88 1011.1
20260504224203 13 0 0.0 0.0 0.00 0.00 0.00 88 1011.1
20260504223603 13 0 0.0 0.0 0.00 0.00 0.00 89 1011.0
20260504223003 13 0 0.0 0.0 0.00 0.00 0.00 87 1011.0
20260504222403 13 0 0.0 0.0 0.00 0.00 0.00 86 1010.9
20260504221803 13 0 0.0 0.0 0.00 0.00 0.00 86 1010.9
20260504221203 13 0 0.0 0.0 0.00 0.00 0.00 86 1010.9
20260504220603 13 0 0.0 0.0 0.00 0.00 0.00 85 1011.1
20260504220004 14 0 0.0 0.0 0.00 0.00 0.00 84 1011.1
20260504215403 14 0 0.0 0.0 0.00 0.00 0.00 83 1011.3
20260504214803 14 0 0.0 0.0 0.00 0.00 0.00 83 1011.3
20260504214203 15 0 0.0 0.0 0.00 0.00 0.00 81 1011.2
20260504213603 15 0 0.0 0.0 0.00 0.00 0.00 80 1011.0
20260504213003 15 0 0.0 0.0 0.00 0.00 0.00 79 1011.2
20260504212404 15 0 0.0 0.0 0.00 0.00 0.00 79 1011.1
20260504211804 16 45 0.0 3.2 0.00 0.00 0.00 78 1011.1
20260504211203 16 45 0.0 3.2 0.00 0.00 0.00 75 1011.2
20260504210603 16 0 0.0 0.0 0.00 0.00 0.00 76 1011.1
20260504210004 16 0 0.0 0.0 0.00 0.00 0.00 77 1011.0
20260504205404 16 0 0.0 0.0 0.00 0.00 0.00 77 1011.1
20260504204803 16 0 0.0 0.0 0.00 0.00 0.00 77 1011.1
20260504204203 16 0 0.0 0.0 0.00 0.00 0.00 79 1011.2
20260504203604 16 0 0.0 0.0 0.00 0.00 0.00 80 1011.2
20260504203004 16 0 0.0 0.0 0.00 0.00 0.00 79 1011.3
20260504202404 16 0 0.0 0.0 0.00 0.00 0.00 78 1011.4
20260504201804 16 0 0.0 0.0 0.00 0.00 0.00 78 1011.3
20260504201205 16 0 0.0 0.0 0.00 0.00 0.00 79 1011.1
20260504200603 16 0 0.0 0.0 0.00 0.00 0.00 80 1011.2
20260504200003 16 0 0.0 0.0 0.00 0.00 0.00 79 1011.2
20260504195404 16 0 0.0 0.0 0.00 0.00 0.00 75 1011.1
20260504194803 16 0 0.0 0.0 0.00 0.00 0.00 74 1011.1
20260504194203 17 0 0.0 0.0 0.00 0.00 0.00 73 1011.0
20260504193603 16 0 0.0 0.0 0.00 0.00 0.00 73 1011.1
20260504193003 17 0 0.0 0.0 0.00 0.00 0.00 73 1011.1
20260504192404 17 0 0.0 0.0 0.00 0.00 0.00 74 1011.1
20260504191803 17 0 0.0 0.0 0.00 0.00 0.00 75 1011.0
20260504191203 17 0 0.0 0.0 0.00 0.00 0.00 73 1010.9
20260504190603 17 0 0.0 0.0 0.00 0.00 0.00 72 1011.0
20260504190004 17 0 0.0 0.0 0.00 0.00 0.00 70 1010.8
20260504185403 17 0 0.0 0.0 0.00 0.00 0.00 70 1010.6
20260504184803 17 0 0.0 0.0 0.00 0.00 0.00 69 1010.9
20260504184203 18 0 0.0 0.0 0.00 0.00 0.00 67 1010.9
20260504183603 18 0 0.0 0.0 0.00 0.00 0.00 67 1010.9
20260504183003 19 0 0.0 0.0 0.00 0.00 0.00 65 1010.8
20260504182403 19 0 0.0 0.0 0.00 0.00 0.00 63 1010.5
20260504181803 18 0 0.0 0.0 0.00 0.00 0.00 65 1010.7
20260504181203 19 0 0.0 0.0 0.00 0.00 0.00 65 1010.7
20260504180603 20 0 0.0 0.0 0.00 0.00 0.00 63 1010.7
20260504180004 20 0 0.0 0.0 0.00 0.00 0.00 63 1010.5
20260504175403 21 0 0.0 0.0 0.00 0.00 0.00 58 1010.7
20260504174803 21 305 0.0 3.2 0.00 0.00 0.00 55 1010.7
20260504174203 21 294 3.2 6.4 0.00 0.00 0.00 54 1010.6
20260504173603 21 293 4.8 6.4 0.00 0.00 0.00 54 1010.6
20260504173003 21 309 4.8 6.4 0.00 0.00 0.00 53 1010.6
20260504172403 21 310 4.8 6.4 0.00 0.00 0.00 53 1010.5
20260504171804 21 306 3.2 6.4 0.00 0.00 0.00 53 1010.6
20260504171203 21 300 1.6 6.4 0.00 0.00 0.00 52 1010.6
20260504170604 21 298 3.2 6.4 0.00 0.00 0.00 52 1010.7
20260504150603 22 300 8.0 17.7 0.00 0.00 0.00 50 1010.8
20260504141203 22 283 12.9 17.7 0.00 0.00 0.00 52 1011.3
20260504140603 22 281 12.9 17.7 0.00 0.00 0.00 52 1011.3
20260504130603 21 290 12.9 22.5 0.00 0.00 0.00 55 1011.7
20260504110604 22 282 8.0 14.5 0.00 0.00 0.00 55 1012.1
20260504100604 21 266 11.3 17.7 0.00 0.00 0.00 56 1012.7
20260504081803 18 252 6.4 9.7 0.00 0.00 0.00 67 1012.8
20260504081203 18 215 4.8 6.4 0.00 0.00 0.00 67 1012.6
20260504080603 18 228 6.4 6.4 0.00 0.00 0.00 66 1012.6